Flag for Guinea-Bissau Weather past 2 weeks in Bissau, Guinea-Bissau

Now
70 °F

Clear.


Feels Like: 70 °F
Forecast: 71 / 95 °F
Wind: 2 mph from North

Location: Ziguinchor Airport

Current Time: Apr 22, 2015 at 2:57:16 AM

Latest Report: Apr 22, 2015 at 2:00 AM


Visibility: 10 mi

Pressure: 29.89 "Hg

Humidity: 94%

Dew point: 68 °F

Location of BissauLocation

Historic Weather in Bissau — Graph

°F

Bissau temperature yesterday

Maximum temperature yesterday: 95 °F (at 2:00 PM)
Minimum temperature yesterday: 68 °F (at 6:00 AM)
Average temperature yesterday: 78 °F

Past Weeks' High & Low Weather Summary

 TemperatureHumidityPressure
High108 °F (Apr 9, 3:00 PM)100% (Apr 7, 4:00 AM)30.01 "Hg (Apr 7, 4:00 AM)
Low68 °F (Apr 7, 4:00 AM)13% (Apr 9, 4:00 PM)29.74 "Hg (Apr 9, 4:00 PM)
Average80 °F68%29.88 "Hg
* Reported Apr 7 2:00 AM — Apr 22 2:00 AM, Bissau, Weather by CustomWeather, © 2015

Note: Actual official high and low records may vary slightly from our data, if they occured in-between our weather recording intervals... More about our weather records

Advertising

Bissau weather history for previous 24 hours

 ConditionsComfort  
Time TempWeatherWind HumidityBarometerVisibility
2:00 AM
Wed, Apr 22
70 °FClear.2 mph94%29.89 "Hg10 mi
1:00 AM72 °FClear.5 mph88%29.89 "Hg10 mi
12:00 AM72 °FClear.5 mph88%29.89 "Hg10 mi
11:00 PM
Tue, Apr 21
73 °FClear.7 mph78%29.89 "Hg10 mi
9:00 PM75 °FClear.9 mph74%29.83 "Hg10 mi
8:00 PM77 °FClear.7 mph74%29.83 "Hg5 mi
7:00 PM81 °FSunny.9 mph66%29.80 "Hg10 mi
6:00 PM84 °FSunny.9 mph58%29.80 "Hg10 mi
5:00 PM88 °FSunny.9 mph55%29.77 "Hg10 mi
4:00 PM91 °FSunny.9 mph49%29.80 "Hg10 mi
3:00 PM95 °FSunny.12 mph47%29.80 "Hg10 mi
2:00 PM95 °FSunny.7 mph41%29.83 "Hg10 mi
1:00 PM91 °FSunny.2 mph41%29.86 "Hg10 mi
12:00 PM88 °FSunny.5 mph49%29.89 "Hg10 mi
11:00 AM81 °FSunny.5 mph58%29.92 "Hg10 mi
10:00 AM77 °FSunny.5 mph69%29.92 "Hg10 mi
9:00 AM73 °FPassing clouds.2 mph83%29.89 "HgN/A
8:00 AM70 °FPartly sunny.2 mph94%29.89 "HgN/A
7:00 AM68 °FScattered clouds.2 mph100%29.86 "HgN/A
6:00 AM68 °FPassing clouds.2 mph94%29.86 "HgN/A
4:30 AM70 °FPassing clouds.2 mph88%29.86 "HgN/A
4:00 AM70 °FClear.2 mph94%29.86 "Hg10 mi
3:00 AM70 °FClear.2 mph88%29.86 "Hg10 mi
2:00 AM70 °FClear.No wind88%29.86 "Hg10 mi
Weather by CustomWeather, © 2015

See weather overviewHow to use our weather pages